Find Local Weather

World > North America > United States > Georgia

Uvalda, Georgia Regional Weather

Lat: 32.04N, Lon: 82.51W
Wx Zone: GAZ112
Warning FLW WEATHER ALERT - (More Info. Click Here) Warning
Feedback
Expires:201812111800;;638547
ASUS42 KFFC 111710
RWRGA 
WEATHER ROUNDUP FOR GEORGIA
NATIONAL WEATHER SERVICE PEACHTREE CITY GA
1200 PM EST TUE DEC 11 2018

NOTE: "FAIR" INDICATES FEW OR NO CLOUDS BELOW 12,000 FEET WITH NO
SIGNIFICANT WEATHER AND/OR OBSTRUCTIONS TO VISIBILITY. 

* = USE WITH CAUTION. THE STATIONS MARKED WITH AN ASTERISK MAY NOT
REPORT WEATHER SUCH AS PRECIPITATION, FOG, OR THUNDER AND ARE NOT 
QUALITY CONTROLLED BY NWS.

THE REMARK "TC" DENOTES TEMPERATURE READING IN DEGREES CELSIUS.


GAZ099>101-110>166-111800-
SOUTH GEORGIA
  
CITY           SKY/WX    TMP DP  RH WIND       PRES   REMARKS
SAVANNAH       FAIR      51  29  42 W13       30.28F                  
VALDOSTA       FAIR      52  40  63 W7        30.33F                  
ALMA           FAIR      51  37  58 W6        30.30F                  
ST SIMONS      FAIR      51  36  56 NW12      30.29F                  
FT STEWART     SUNNY     52  30  43 NW8       30.26F                  
ALBANY         CLOUDY    46  39  76 W6        30.38S                  
HUNTER AFB     FAIR      50  39  66 NW14      30.25F                  
MOODY AFB      FAIR      52  38  59 N7        30.32F                  
BRUNSWICK      FAIR      50  37  62 W10       30.30F                  

  
CITY           SKY/WX    TMP DP  RH WIND       PRES   REMARKS
BAINBRIDGE*      N/A     50  36  57 NW3       30.38F                  
MOULTRIE*      CLOUDY    45  39  81 NW7       30.36S                  
VIDALIA*       FAIR      52  36  54 W5        30.30F                  
WAYCROSS*      FAIR      51  36  57 NW6       30.31F                  
$$
  

SKY/WX - Weather  TMP - Temperature  DP - Dew Point  RH - Relative Humidity
WIND - Wind Direction/Speed PRES - Barometric Pressure